{"data":{"norad_id":57202,"intl_designator":"2023-091AN","name":"CSTP 1.1 (STC 1.1)","alt_names":[],"object_type":"PAYLOAD","status":"ACTIVE","operator":null,"country":"CIS","launch_date":"2023-06-27","launch_site_code":"VOSTO","launch_vehicle":null,"mission":null,"orbit_class":"UNKNOWN","rcs_meters":null,"size_class":null,"mass_kg":null,"dimensions":null,"purposes":[],"wikipedia_slug":null,"has_3d_model":false,"image_url":null,"decayed_at":null,"tle_current":{"epoch":"2026-09-21T21:06:43.857792Z","epoch_age_seconds":85920,"freshness":"FRESH","line1":"1 57202U 23091AN  26264.87967428  .00002911  00000+0  13877-3 0  9993","line2":"2 57202  97.5017 323.1443 0010566 127.2301 232.9899 15.19864245178644","mean_motion":15.19864245,"eccentricity":0.0010566,"inclination_deg":97.5017,"raan_deg":323.1443,"arg_perigee_deg":127.2301,"mean_anomaly_deg":232.9899,"bstar":0.00013877,"rev_number":17864,"period_min":94.745304045231,"perigee_km":498.97648388946,"apogee_km":513.5245716131,"semimajor_km":6884.3875277513,"source":"CELESTRAK","updated_at":"2026-09-22T09:00:26.082292Z"}}}